TimeEDT,TemperatureF,Dew PointF,Humidity,Sea Level PressureIn,VisibilityMPH,Wind Direction,Wind SpeedMPH,Gust SpeedMPH,PrecipitationIn,Events,Conditions,WindDirDegrees,DateUTC
12:13 AM,62.6,60.8,94,29.69,4.0,SE,8.1,-,0.03,Rain,Rain,140,2008-05-09 04:13:00
12:50 AM,62.6,60.8,94,29.69,7.0,South,6.9,-,0.03,,Mostly Cloudy,190,2008-05-09 04:50:00
12:54 AM,62.1,60.1,93,29.63,8.0,SSW,8.1,-,0.03,,Mostly Cloudy,200,2008-05-09 04:54:00
1:54 AM,62.1,60.1,93,29.61,10.0,Calm,Calm,-,N/A,,Mostly Cloudy,0,2008-05-09 05:54:00
2:54 AM,60.1,60.1,100,29.61,8.0,Calm,Calm,-,N/A,,Mostly Cloudy,0,2008-05-09 06:54:00
3:33 AM,57.2,57.2,100,29.68,1.5,Calm,Calm,-,N/A,,Mostly Cloudy,0,2008-05-09 07:33:00
3:38 AM,57.2,57.2,100,29.68,0.8,Calm,Calm,-,N/A,,Mostly Cloudy,0,2008-05-09 07:38:00
3:47 AM,59.0,59.0,100,29.68,1.5,Calm,Calm,-,N/A,,Mostly Cloudy,0,2008-05-09 07:47:00
3:52 AM,59.0,59.0,100,29.68,3.0,Calm,Calm,-,N/A,,Overcast,0,2008-05-09 07:52:00
3:54 AM,59.0,59.0,100,29.62,4.0,SSW,3.5,-,N/A,,Overcast,210,2008-05-09 07:54:00
4:54 AM,60.1,57.9,93,29.63,6.0,Variable,3.5,-,N/A,,Clear,0,2008-05-09 08:54:00
5:54 AM,59.0,57.9,96,29.64,8.0,Variable,4.6,-,N/A,,Clear,0,2008-05-09 09:54:00
6:54 AM,57.9,55.0,90,29.65,10.0,NNW,4.6,-,N/A,,Clear,340,2008-05-09 10:54:00
7:54 AM,60.8,55.4,82,29.72,10.0,NW,6.9,-,N/A,,Mostly Cloudy,320,2008-05-09 11:54:00
8:54 AM,64.0,55.9,75,29.67,10.0,North,9.2,-,N/A,,Overcast,350,2008-05-09 12:54:00
9:54 AM,66.0,55.0,68,29.69,10.0,NNW,11.5,-,N/A,,Overcast,330,2008-05-09 13:54:00
10:54 AM,66.0,55.9,70,29.70,10.0,NNW,10.4,-,N/A,,Overcast,340,2008-05-09 14:54:00
11:54 AM,69.1,55.9,63,29.70,10.0,Variable,6.9,-,N/A,,Mostly Cloudy,0,2008-05-09 15:54:00
12:54 PM,73.0,55.0,53,29.68,10.0,North,12.7,17.3,N/A,,Clear,350,2008-05-09 16:54:00
1:54 PM,75.9,55.9,50,29.69,10.0,North,8.1,-,N/A,,Clear,350,2008-05-09 17:54:00
2:54 PM,75.9,54.0,46,29.67,10.0,Variable,3.5,-,N/A,,Clear,0,2008-05-09 18:54:00
3:54 PM,77.0,50.0,39,29.68,10.0,WNW,11.5,-,N/A,,Partly Cloudy,300,2008-05-09 19:54:00
4:54 PM,77.0,54.0,45,29.67,10.0,NNW,10.4,18.4,N/A,,Clear,340,2008-05-09 20:54:00
5:54 PM,75.9,52.0,43,29.68,10.0,North,11.5,-,N/A,,Clear,10,2008-05-09 21:54:00
6:54 PM,73.9,51.1,45,29.69,10.0,North,11.5,-,N/A,,Partly Cloudy,350,2008-05-09 22:54:00
7:54 PM,72.0,51.1,48,29.70,10.0,North,9.2,-,N/A,,Clear,360,2008-05-09 23:54:00
8:54 PM,66.9,52.0,59,29.73,10.0,NW,3.5,-,N/A,,Clear,320,2008-05-10 00:54:00
9:54 PM,66.0,54.0,65,29.72,10.0,NNW,9.2,-,N/A,,Clear,340,2008-05-10 01:54:00
10:29 PM,64.4,57.2,77,29.83,9.0,NW,12.7,-,0.01,Rain,Rain,320,2008-05-10 02:29:00
10:54 PM,63.0,57.9,84,29.78,10.0,NNW,12.7,-,0.02,,Overcast,330,2008-05-10 02:54:00
11:54 PM,62.6,57.2,82,29.83,10.0,Calm,Calm,-,N/A,Rain,Light Rain,0,2008-05-10 03:54:00